Regional Weather Roundup
Issued by NWS

Home | Current Version | Previous Version | Graphics & Text | Print | Product List | Glossary On
Versions: 1 2 3 4 5 6 7 8 9 10 11 12 13 14 15 16 17 18 19 20 21 22 23 24 25 26 27 28 29 30 31 32 33 34 35 36 37 38 39 40 41 42 43 44 45 46 47 48 49 50
120
ASUS45 KPSR 200510
RWRAZ

ARIZONA HOURLY REGIONAL WEATHER ROUNDUP
NATIONAL WEATHER SERVICE PHOENIX AZ
1000 PM MST THU APR 19 2018

NOTE: FAIR INDICATES FEW OR NO CLOUDS BELOW 12,000 FEET WITH NO
SIGNIFICANT WEATHER AND/OR OBSTRUCTIONS TO VISIBILITY.

AZZ001>003-036-200600-
NORTHWEST ARIZONA

CITY           SKY/WX    TMP DP  RH WIND       PRES   REMARKS
BULLHEAD CITY  PTCLDY    64  23  20 E12       29.83S
KINGMAN        PTCLDY    50  25  37 SW12      29.88R
$$

AZZ004>008-015-016-018-200600-
NORTH CENTRAL ARIZONA

CITY           SKY/WX    TMP DP  RH WIND       PRES   REMARKS
PRESCOTT       PTCLDY    43  17  35 W13       29.89R
FLAGSTAFF      CLOUDY    37  14  38 W9        29.88S WCI  30
PAYSON         CLEAR     46  18  31 VRB7      29.89F
PAGE           PTCLDY    52  20  28 W8        29.79R
$$

AZZ009>014-017-200600-
NORTHEAST ARIZONA

CITY           SKY/WX    TMP DP  RH WIND       PRES   REMARKS
WINSLOW        CLEAR     50  16  25 SW16      29.84S
SAINT JOHNS    CLEAR     55   8  15 W21G30    29.82R
WINDOW ROCK    PTCLDY    51   7  16 SW22G40   29.86R
SHOW LOW       CLEAR     46  14  27 S18G25    29.90R
$$

AZZ540-542>544-546-548-200600-
GREATER PHOENIX AREA

CITY           SKY/WX    TMP DP  RH WIND       PRES   REMARKS
PHOENIX        CLEAR     65  27  23 SW6       29.83R
BUCKEYE        PTCLDY    63  32  31 W13G18    29.85S
LUKE AFB       CLEAR     63  31  30 SW13      29.83R
DEER VALLEY    CLEAR     63  27  25 SW12      29.83R
SCOTTSDALE     CLEAR     64  28  25 SW12G22   29.84S
MESA-GATEWAY   MOCLDY    63  27  25 W9        29.87
$$

AZZ539-553-200600-
SOUTHWEST MARICOPA COUNTY AND PINAL COUNTY

CITY           SKY/WX    TMP DP  RH WIND       PRES   REMARKS
CASA GRANDE    CLEAR     61  30  31 W12       29.87R
GILA BEND      FAIR      62  30  30 W8        29.87R
$$

AZZ503-504-507>509-200600-
SOUTHEAST ARIZONA

CITY           SKY/WX    TMP DP  RH WIND       PRES   REMARKS
TUCSON         CLEAR     66  13  12 W13       29.92R
DAVIS-MONTHAN  CLEAR     64  12  13 W9        29.90R
NOGALES        CLEAR     60   7  12 S10       29.95R
SIERRA VISTA   CLEAR     63   3   9 SW5       29.96S
DOUGLAS        CLEAR     61   7  11 S8        29.94S
SAFFORD        CLEAR     65  16  15 NW23G31   29.80R
$$

AZZ532-200600-
SOUTHWEST ARIZONA

CITY           SKY/WX    TMP DP  RH WIND       PRES   REMARKS
YUMA           CLEAR     60  34  37 W16       29.91R
$$

CAZ041-043-047-048-061-525>527-560>570-200600-
SOUTHERN CALIFORNIA

CITY           SKY/WX    TMP DP  RH WIND       PRES   REMARKS
DOWNTOWN L.A.  CLEAR     56  49  77 CALM      30.03R
L.A. AIRPORT   CLEAR     56  50  80 W9        30.03R
SAN DIEGO      PTCLDY    58  46  64 N3        30.09R
BURBANK        CLEAR     56  49  77 E7        30.02R
ONTARIO        PTCLDY    53  43  68 W6        30.04R
RIVERSIDE      CLEAR     53  42  66 CALM      30.04R
PALM SPRINGS   CLEAR     67  26  21 CALM      29.92R
EL CENTRO NAS  PTCLDY    60  32  34 W15       29.96R
IMPERIAL       CLEAR     60  36  40 W15       29.92R
BLYTHE         CLEAR     66  23  19 NW14      29.88R
NEEDLES        CLEAR     66  24  20 W18G24    29.84R
$$

NVZ020-UTZ003-200600-
SOUTHERN NEVADA-UTAH

CITY           SKY/WX    TMP DP  RH WIND       PRES   REMARKS
LAS VEGAS      MOCLDY    58  32  37 NW9       29.85R
SALT LAKE CITY MOCLDY    51  31  46 W8        29.73F
$$

NMZ009-TXZ055-200600-
NEW MEXICO-WEST TEXAS

CITY           SKY/WX    TMP DP  RH WIND       PRES   REMARKS
ALBUQUERQUE    MOCLDY    61  26  26 SE32G46   29.88F
EL PASO        PTCLDY    68  37  32 E10       29.94F
$$


........................KEY........................
SKY/WX - SKY CONDITION/WEATHER
TMP    - TEMPERATURE IN FAHRENHEIT
DP     - DEW POINT IN FAHRENHEIT
RH     - RELATIVE HUMIDITY IN PERCENT
WIND   - DIRECTION AND SPEED IN MILES PER HOUR (MPH)
VRB    - VARIABLE WIND DIRECTION
PRES   - MEAN SEA LEVEL PRESSURE IN INCHES OF MERCURY
         F - FALLING PRESSURE   R - RISING PRESSURE
         S - STEADY PRESSURE
VSB    - VISIBILITY IN MILES
HX     - HEAT INDEX IN FAHRENHEIT
WCI    - WIND CHILL INDEX IN FAHRENHEIT
TC     - TEMPERATURE IN CELSIUS WHICH IS ALSO KNOWN AS
         TEMPERATURE IN CENTIGRADE
AFB    - AIR FORCE BASE
         LUKE AFB IS LUKE AIR FORCE BASE
         DAVIS-MONTHAN IS DAVIS-MONTHAN AIR FORCE BASE
NAS    - NAVAL AIR STATION
         EL CENTRO NAS IS EL CENTRO NAVAL AIR STATION
N/A    - NOT AVAILABLE





USA.gov is the U.S. government's official web portal to all federal, state and local government web resources and services.